Powrót do katalogu

CZ-3C DEB

AktywnyGTO
NORAD 40207·DEBRIS·🇨🇳 China

Wystrzelony Feb 24, 2012 z Xichang Satellite Launch Center

Loading…

TLE

NieaktualneSource: Space-Track

Epoka: Sep 11, 2026, 08:40 UTC

1 40207U 12008S   26254.36125535 -.00000201  00000-0  17037-3 0  9998
2 40207  19.1391 280.0233 7202543  76.8935 348.4259  2.24301892 97358

Śledź CZ-3C DEB w czasie rzeczywistym z AllMySat

Download on the App Store